| time (UTC) | temp F | wind direction | speed MPH | gust MPH | rain 1hr in | rain 24hr in | rain mn in | humidity % | barometer mb |
| 20260506041312 | 47 | 35 | 0.0 | 2.0 | 0.00 | 0.00 | 0.00 | 82 | 1013.9 |
| 20260506040311 | 48 | 42 | 0.0 | 2.0 | 0.00 | 0.00 | 0.00 | 83 | 1013.8 |
| 20260506035309 | 48 | 42 | 0.0 | 2.0 | 0.00 | 0.00 | 0.00 | 84 | 1013.8 |
| 20260506034310 | 48 | 345 | 0.0 | 1.0 | 0.00 | 0.00 | 0.00 | 83 | 1013.7 |
| 20260506033307 | 48 | 323 | 0.0 | 0.0 | 0.00 | 0.00 | 0.00 | 83 | 1013.7 |
| 20260506032307 | 48 | 323 | 0.0 | 0.0 | 0.00 | 0.00 | 0.00 | 83 | 1013.7 |
| 20260506031306 | 49 | 323 | 0.0 | 0.0 | 0.00 | 0.00 | 0.00 | 84 | 1013.7 |
| 20260506030304 | 49 | 323 | 0.0 | 0.0 | 0.00 | 0.00 | 0.00 | 84 | 1013.7 |
| 20260506025310 | 49 | 319 | 0.0 | 0.0 | 0.00 | 0.00 | 0.00 | 84 | 1013.6 |
| 20260506024306 | 49 | 338 | 0.0 | 0.0 | 0.00 | 0.00 | 0.00 | 83 | 1013.7 |
| 20260506023303 | 49 | 338 | 0.0 | 0.0 | 0.00 | 0.00 | 0.00 | 83 | 1013.7 |
| 20260506022754 | 49 | 341 | 0.0 | 0.0 | 0.00 | 0.00 | 0.00 | 83 | 1013.7 |
| 20260506021305 | 49 | 348 | 0.0 | 0.0 | 0.00 | 0.00 | 0.00 | 83 | 1013.8 |
| 20260506020750 | 49 | 348 | 0.0 | 0.0 | 0.00 | 0.00 | 0.00 | 83 | 1013.9 |
| 20260506015305 | 49 | 348 | 0.0 | 0.0 | 0.00 | 0.00 | 0.00 | 83 | 1013.9 |
| 20260506014259 | 49 | 348 | 0.0 | 0.0 | 0.00 | 0.00 | 0.00 | 82 | 1013.9 |
| 20260506013303 | 49 | 348 | 0.0 | 0.0 | 0.00 | 0.00 | 0.00 | 82 | 1013.8 |
| 20260506012258 | 49 | 346 | 0.0 | 0.0 | 0.00 | 0.00 | 0.00 | 82 | 1013.9 |
| 20260506011259 | 50 | 346 | 0.0 | 0.0 | 0.00 | 0.00 | 0.00 | 81 | 1013.9 |
| 20260506010258 | 50 | 346 | 0.0 | 0.0 | 0.00 | 0.00 | 0.00 | 81 | 1013.9 |
| 20260506005300 | 50 | 355 | 0.0 | 0.0 | 0.00 | 0.00 | 0.00 | 80 | 1013.9 |
| 20260506004259 | 51 | 11 | 0.0 | 2.0 | 0.00 | 0.00 | 0.00 | 78 | 1013.9 |
| 20260506003258 | 51 | 5 | 0.0 | 2.0 | 0.00 | 0.00 | 0.00 | 78 | 1014.0 |
| 20260506002258 | 51 | 355 | 0.0 | 3.0 | 0.00 | 0.00 | 0.00 | 78 | 1014.0 |
| 20260506001254 | 51 | 294 | 0.0 | 3.0 | 0.00 | 0.00 | 0.00 | 77 | 1013.9 |
| 20260506000733 | 51 | 350 | 0.0 | 3.0 | 0.00 | 0.00 | 0.00 | 78 | 1013.9 |
| 20260505235252 | 51 | 5 | 0.0 | 3.0 | 0.00 | 0.00 | 0.00 | 78 | 1014.0 |
| 20260505234252 | 52 | 355 | 1.0 | 3.0 | 0.00 | 0.00 | 0.00 | 77 | 1014.0 |
| 20260505233253 | 52 | 24 | 1.0 | 3.0 | 0.00 | 0.00 | 0.00 | 77 | 1013.9 |
| 20260505232251 | 52 | 28 | 1.0 | 4.0 | 0.00 | 0.00 | 0.00 | 77 | 1013.9 |
| 20260505231251 | 52 | 22 | 1.0 | 5.0 | 0.00 | 0.00 | 0.00 | 76 | 1013.8 |
| 20260505230724 | 53 | 355 | 1.0 | 2.0 | 0.00 | 0.00 | 0.00 | 76 | 1013.9 |
| 20260505224249 | 53 | 42 | 0.0 | 2.0 | 0.00 | 0.00 | 0.00 | 75 | 1013.8 |
| 20260505223250 | 53 | 11 | 0.0 | 2.0 | 0.00 | 0.00 | 0.00 | 75 | 1013.8 |
| 20260505222250 | 53 | 331 | 0.0 | 2.0 | 0.00 | 0.00 | 0.00 | 75 | 1013.8 |
| 20260505221249 | 53 | 12 | 0.0 | 1.0 | 0.00 | 0.00 | 0.00 | 76 | 1013.9 |
| 20260505220727 | 54 | 22 | 0.0 | 2.0 | 0.00 | 0.00 | 0.00 | 76 | 1013.8 |
| 20260505215736 | 54 | 18 | 0.0 | 2.0 | 0.00 | 0.00 | 0.00 | 75 | 1013.8 |
| 20260505214241 | 54 | 5 | 0.0 | 3.0 | 0.00 | 0.00 | 0.00 | 76 | 1013.8 |
| 20260505213241 | 54 | 355 | 0.0 | 3.0 | 0.00 | 0.00 | 0.00 | 75 | 1013.8 |
| 20260505212239 | 54 | 56 | 0.0 | 0.0 | 0.00 | 0.00 | 0.00 | 76 | 1013.8 |
| 20260505211237 | 54 | 56 | 0.0 | 0.0 | 0.00 | 0.00 | 0.00 | 76 | 1013.7 |
| 20260505210235 | 54 | 56 | 0.0 | 2.0 | 0.00 | 0.00 | 0.00 | 75 | 1013.7 |
| 20260505205232 | 54 | 56 | 0.0 | 2.0 | 0.00 | 0.00 | 0.00 | 73 | 1013.6 |
| 20260505204232 | 54 | 74 | 0.0 | 2.0 | 0.00 | 0.00 | 0.00 | 73 | 1013.6 |
| 20260505203230 | 54 | 36 | 0.0 | 2.0 | 0.00 | 0.00 | 0.00 | 74 | 1013.6 |
| 20260505202231 | 54 | 55 | 0.0 | 3.0 | 0.00 | 0.00 | 0.00 | 73 | 1013.5 |
| 20260505200230 | 55 | 315 | 0.0 | 2.0 | 0.00 | 0.00 | 0.00 | 75 | 1013.4 |
| 20260505195230 | 55 | 316 | 0.0 | 3.0 | 0.00 | 0.00 | 0.00 | 73 | 1013.3 |
| 20260505194230 | 55 | 278 | 0.0 | 3.0 | 0.00 | 0.00 | 0.00 | 74 | 1013.3 |
| 20260505193226 | 55 | 104 | 0.0 | 2.0 | 0.00 | 0.00 | 0.00 | 75 | 1013.1 |
| 20260505192709 | 56 | 32 | 0.0 | 2.0 | 0.00 | 0.00 | 0.00 | 74 | 1013.2 |
| 20260505191227 | 56 | 101 | 0.0 | 2.0 | 0.00 | 0.00 | 0.00 | 73 | 1013.1 |
| 20260505190226 | 56 | 82 | 0.0 | 2.0 | 0.00 | 0.00 | 0.00 | 72 | 1013.0 |
| 20260505185657 | 56 | 314 | 0.0 | 0.0 | 0.00 | 0.00 | 0.00 | 74 | 1012.9 |
| 20260505184222 | 56 | 336 | 0.0 | 0.0 | 0.00 | 0.00 | 0.00 | 73 | 1012.9 |
| 20260505183220 | 56 | 336 | 0.0 | 0.0 | 0.00 | 0.00 | 0.00 | 73 | 1012.9 |
| 20260505182221 | 56 | 336 | 0.0 | 1.0 | 0.00 | 0.00 | 0.00 | 72 | 1012.8 |
| 20260505181222 | 56 | 325 | 0.0 | 1.0 | 0.00 | 0.00 | 0.00 | 72 | 1012.8 |
| 20260505180220 | 56 | 309 | 0.0 | 2.0 | 0.00 | 0.00 | 0.00 | 72 | 1012.9 |
| 20260505175219 | 57 | 134 | 0.0 | 6.0 | 0.00 | 0.00 | 0.00 | 72 | 1012.8 |
| 20260505174215 | 57 | 355 | 0.0 | 6.0 | 0.00 | 0.00 | 0.00 | 71 | 1012.8 |
| 20260505173215 | 57 | 22 | 0.0 | 2.0 | 0.00 | 0.00 | 0.00 | 71 | 1012.8 |
| 20260505172215 | 57 | 350 | 0.0 | 1.0 | 0.00 | 0.00 | 0.00 | 72 | 1012.9 |
| 20260505171214 | 57 | 350 | 0.0 | 1.0 | 0.00 | 0.00 | 0.00 | 72 | 1012.9 |
| 20260505170208 | 57 | 350 | 0.0 | 2.0 | 0.00 | 0.00 | 0.00 | 71 | 1013.0 |
| 20260505165208 | 58 | 350 | 0.0 | 2.0 | 0.00 | 0.00 | 0.00 | 71 | 1013.0 |
| 20260505164208 | 58 | 350 | 0.0 | 2.0 | 0.00 | 0.00 | 0.00 | 70 | 1012.9 |
| 20260505163209 | 58 | 52 | 0.0 | 2.0 | 0.00 | 0.00 | 0.00 | 71 | 1013.0 |
| 20260505162209 | 58 | 250 | 0.0 | 2.0 | 0.00 | 0.00 | 0.00 | 70 | 1013.0 |
| 20260505161208 | 58 | 53 | 0.0 | 2.0 | 0.00 | 0.00 | 0.00 | 72 | 1013.0 |
| 20260505160212 | 58 | 72 | 0.0 | 0.0 | 0.00 | 0.00 | 0.00 | 70 | 1013.1 |
| 20260505153207 | 58 | 66 | 0.0 | 1.0 | 0.00 | 0.00 | 0.00 | 71 | 1013.1 |
| 20260505152206 | 58 | 71 | 0.0 | 1.0 | 0.00 | 0.00 | 0.00 | 71 | 1013.1 |
| 20260505151208 | 58 | 355 | 0.0 | 2.0 | 0.00 | 0.00 | 0.00 | 71 | 1013.2 |
| 20260505150206 | 58 | 11 | 0.0 | 2.0 | 0.00 | 0.00 | 0.00 | 70 | 1013.1 |
| 20260505140639 | 58 | 82 | 0.0 | 1.0 | 0.00 | 0.00 | 0.00 | 70 | 1013.3 |
| 20260505130203 | 57 | 321 | 0.0 | 1.0 | 0.00 | 0.00 | 0.00 | 72 | 1013.6 |
| 20260505124202 | 57 | 63 | 0.0 | 2.0 | 0.00 | 0.00 | 0.00 | 74 | 1013.6 |
| 20260505123202 | 57 | 0 | 0.0 | 0.0 | 0.00 | 0.00 | 0.00 | 71 | 1013.5 |
| 20260505122652 | 57 | 17 | 0.0 | 3.0 | 0.00 | 0.00 | 0.00 | 72 | 1013.5 |
| 20260505121202 | 57 | 5 | 1.0 | 3.0 | 0.00 | 0.00 | 0.00 | 71 | 1013.5 |
| 20260505120202 | 57 | 342 | 0.0 | 3.0 | 0.00 | 0.00 | 0.00 | 73 | 1013.6 |
| 20260505115202 | 57 | 18 | 1.0 | 3.0 | 0.00 | 0.00 | 0.00 | 72 | 1013.4 |
| 20260505114202 | 58 | 298 | 0.0 | 2.0 | 0.00 | 0.00 | 0.00 | 74 | 1013.6 |
| 20260505113202 | 56 | 329 | 0.0 | 1.0 | 0.00 | 0.00 | 0.00 | 77 | 1013.5 |
| 20260505112202 | 56 | 338 | 0.0 | 2.0 | 0.00 | 0.00 | 0.00 | 77 | 1013.7 |
| 20260505111202 | 56 | 346 | 0.0 | 2.0 | 0.00 | 0.00 | 0.00 | 77 | 1013.8 |
| 20260505110203 | 56 | 92 | 0.0 | 2.0 | 0.00 | 0.00 | 0.00 | 77 | 1013.8 |
| 20260505101636 | 56 | 20 | 0.0 | 2.0 | 0.00 | 0.00 | 0.00 | 79 | 1014.1 |
| 20260505100153 | 55 | 53 | 0.0 | 3.0 | 0.00 | 0.00 | 0.00 | 78 | 1014.1 |
| 20260505095152 | 55 | 0 | 0.0 | 2.0 | 0.00 | 0.00 | 0.00 | 77 | 1014.1 |
| 20260505094152 | 55 | 5 | 0.0 | 2.0 | 0.00 | 0.00 | 0.00 | 80 | 1014.2 |
| 20260505093151 | 54 | 344 | 0.0 | 2.0 | 0.00 | 0.00 | 0.00 | 80 | 1014.4 |
| 20260505092151 | 55 | 9 | 0.0 | 2.0 | 0.00 | 0.00 | 0.00 | 80 | 1014.4 |
| 20260505091635 | 55 | 348 | 0.0 | 3.0 | 0.00 | 0.00 | 0.00 | 81 | 1014.4 |
| 20260505090639 | 55 | 341 | 0.0 | 3.0 | 0.00 | 0.00 | 0.00 | 80 | 1014.3 |
| 20260505085152 | 54 | 105 | 0.0 | 0.0 | 0.00 | 0.00 | 0.00 | 82 | 1014.3 |
| 20260505084149 | 53 | 14 | 0.0 | 0.0 | 0.00 | 0.00 | 0.00 | 85 | 1014.5 |
| 20260505083149 | 52 | 30 | 0.0 | 0.0 | 0.00 | 0.00 | 0.00 | 85 | 1014.5 |
| 20260505082150 | 52 | 30 | 0.0 | 0.0 | 0.00 | 0.00 | 0.00 | 85 | 1014.6 |
| 20260505081146 | 52 | 30 | 0.0 | 0.0 | 0.00 | 0.00 | 0.00 | 84 | 1014.6 |
| 20260505080142 | 53 | 34 | 0.0 | 0.0 | 0.00 | 0.00 | 0.00 | 83 | 1014.6 |
| 20260505075638 | 53 | 21 | 0.0 | 0.0 | 0.00 | 0.00 | 0.00 | 84 | 1014.4 |
| 20260505074145 | 53 | 349 | 0.0 | 0.0 | 0.00 | 0.00 | 0.00 | 86 | 1014.3 |
| 20260505073139 | 52 | 19 | 0.0 | 0.0 | 0.00 | 0.00 | 0.00 | 86 | 1014.3 |
| 20260505072139 | 52 | 71 | 0.0 | 0.0 | 0.00 | 0.00 | 0.00 | 87 | 1014.5 |
| 20260505071139 | 52 | 0 | 0.0 | 0.0 | 0.00 | 0.00 | 0.00 | 88 | 1014.6 |
| 20260505070141 | 51 | 13 | 0.0 | 0.0 | 0.00 | 0.00 | 0.00 | 88 | 1014.6 |
| 20260505065138 | 51 | 5 | 0.0 | 0.0 | 0.00 | 0.00 | 0.00 | 89 | 1014.7 |
| 20260505064136 | 50 | 5 | 0.0 | 0.0 | 0.00 | 0.00 | 0.00 | 91 | 1014.6 |
| 20260505063135 | 50 | 23 | 0.0 | 0.0 | 0.00 | 0.00 | 0.00 | 92 | 1014.6 |
| 20260505062136 | 49 | 42 | 0.0 | 0.0 | 0.00 | 0.00 | 0.00 | 92 | 1014.5 |
| 20260505061619 | 49 | 42 | 0.0 | 0.0 | 0.00 | 0.00 | 0.00 | 92 | 1014.5 |
| 20260505060137 | 49 | 42 | 0.0 | 0.0 | 0.00 | 0.00 | 0.00 | 92 | 1014.5 |
| 20260505055135 | 49 | 42 | 0.0 | 0.0 | 0.00 | 0.00 | 0.00 | 92 | 1014.7 |
| 20260505054141 | 48 | 42 | 0.0 | 0.0 | 0.00 | 0.00 | 0.00 | 92 | 1014.5 |
| 20260505053135 | 48 | 42 | 0.0 | 0.0 | 0.00 | 0.00 | 0.00 | 91 | 1014.7 |
| 20260505052133 | 49 | 42 | 0.0 | 0.0 | 0.00 | 0.00 | 0.00 | 91 | 1014.7 |
| 20260505051134 | 49 | 316 | 0.0 | 0.0 | 0.00 | 0.00 | 0.00 | 91 | 1014.7 |
| 20260505050134 | 49 | 316 | 0.0 | 0.0 | 0.00 | 0.00 | 0.00 | 91 | 1014.5 |